Change the Weather History Date:

Tuesday, November 5, 2013

  Actual Average Record
Temperature  
Mean Temperature 42 °F -  
Max Temperature 46 °F 39 °F 49 °F (1974)
Min Temperature 39 °F 29 °F 10 °F (1975)
Degree Days  
Heating Degree Days 22    
Moisture  
Dew Point 28 °F    
Average Humidity 56    
Maximum Humidity 70    
Minimum Humidity 47    
Precipitation  
Precipitation 0.00 in - - ()
Sea Level Pressure  
Sea Level Pressure 29.63 in    
Wind  
Wind Speed 16 mph (North)    
Max Wind Speed 22 mph    
Max Gust Speed 30 mph    
Visibility 10 miles    
Events      
Averages and records for this station are not official NWS values.
T = Trace of Precipitation, MM = Missing Value Source: NWS Daily Summary

Daily Weather History Graph

Daily Weather History Graph

Search for Another Location

Airport or City:

Trip Planner

Search our weather history database for the weather conditions in past years. The results will help you decide how hot, cold, wet, or windy it might be!

Date:

Astronomy

Nov. 05, 2013 Rise Set
Actual Time 8:32 AM AKST 4:49 PM AKST
Civil Twilight 7:45 AM AKST 5:36 PM AKST
Nautical Twilight 6:55 AM AKST 6:26 PM AKST
Astronomical Twilight 6:06 AM AKST 7:14 PM AKST
Moon 11:23 AM AKST (11/5) 6:34 PM AKST (11/5)
Length of Visible Light 9h 50m
Length of Day
8h 17m
Waxing Crescent, 7% of the Moon is Illuminated
Nov 5
Waxing Crescent
Nov 9
First Quarter
Nov 17
Full
Nov 25
Last Quarter
Dec 2
New

Hourly Weather History & Observations

Time (AKST) Temp. Windchill Dew Point Humidity Pressure Visibility Wind Dir Wind Speed Gust Speed Precip Events Conditions
12:53 AM 42.1 °F 33.1 °F 33.1 °F 70% 29.30 in 10.0 mi NNW 20.7 mph 29.9 mph N/A   Clear
1:53 AM 44.1 °F 35.9 °F 32.0 °F 63% 29.31 in 10.0 mi North 19.6 mph 28.8 mph N/A   Partly Cloudy
3:53 AM 42.1 °F 32.8 °F 30.9 °F 65% 29.38 in 10.0 mi North 21.9 mph 28.8 mph N/A   Scattered Clouds
4:53 AM 43.0 °F 35.7 °F 30.0 °F 60% 29.40 in 10.0 mi North 15.0 mph 27.6 mph N/A   Mostly Cloudy
5:53 AM 44.1 °F 35.9 °F 28.9 °F 55% 29.43 in 10.0 mi North 19.6 mph 26.5 mph N/A   Mostly Cloudy
6:53 AM 43.0 °F 34.5 °F 28.9 °F 58% 29.47 in 10.0 mi North 19.6 mph 27.6 mph N/A   Overcast
7:53 AM 44.1 °F 36.5 °F 28.0 °F 53% 29.51 in 10.0 mi North 17.3 mph 24.2 mph N/A   Overcast
8:53 AM 42.1 °F 36.6 °F 30.0 °F 62% 29.55 in 10.0 mi North 9.2 mph 23.0 mph N/A   Overcast
9:53 AM 43.0 °F 36.0 °F 32.0 °F 65% 29.58 in 10.0 mi North 13.8 mph 23.0 mph N/A   Overcast
10:53 AM 44.1 °F 38.1 °F 30.0 °F 58% 29.62 in 10.0 mi NNE 11.5 mph 19.6 mph N/A   Overcast
11:53 AM 44.1 °F 39.0 °F 32.0 °F 63% 29.65 in 10.0 mi NNW 9.2 mph - N/A   Overcast
12:53 PM 44.1 °F 38.6 °F 33.1 °F 65% 29.67 in 10.0 mi North 10.4 mph - N/A   Overcast
1:53 PM 45.0 °F 39.3 °F 30.9 °F 58% 29.68 in 10.0 mi North 11.5 mph - N/A   Scattered Clouds
2:53 PM 46.0 °F 41.0 °F 28.9 °F 51% 29.70 in 10.0 mi North 10.4 mph 19.6 mph N/A   Scattered Clouds
3:53 PM 45.0 °F 38.2 °F 27.0 °F 49% 29.73 in 10.0 mi North 15.0 mph 20.7 mph N/A   Partly Cloudy
4:53 PM 44.1 °F 36.8 °F 27.0 °F 51% 29.75 in 10.0 mi North 16.1 mph 27.6 mph N/A   Clear
5:53 PM 44.1 °F 36.5 °F 27.0 °F 51% 29.77 in 10.0 mi North 17.3 mph 29.9 mph N/A   Clear
6:53 PM 43.0 °F 35.4 °F 27.0 °F 53% 29.78 in 10.0 mi NNW 16.1 mph 27.6 mph N/A   Clear
7:53 PM 42.1 °F 34.2 °F 24.1 °F 49% 29.80 in 10.0 mi North 16.1 mph 25.3 mph N/A   Clear
8:53 PM 41.0 °F 35.2 °F 23.0 °F 49% 29.82 in 10.0 mi NNE 9.2 mph 24.2 mph N/A   Clear
9:53 PM 41.0 °F 35.2 °F 21.9 °F 47% 29.85 in 10.0 mi North 9.2 mph - N/A   Clear
10:53 PM 39.9 °F 34.5 °F 21.9 °F 49% 29.88 in 10.0 mi North 8.1 mph 20.7 mph N/A   Clear
11:53 PM 39.9 °F 32.1 °F 23.0 °F 51% 29.89 in 10.0 mi North 13.8 mph 21.9 mph N/A   Clear